When you browse on this site, cookies collect data to enhance your experience and personalize the content and advertising you see.
Visit our Privacy Policy to learn more. By continuing to use the site, you agree to this use of cookies and data.
  • In Hungary
  • List of Countries
  • For 7 days
  • Water Temperature
  • Satellite Maps
  • Weather Map
  • News
  • Weather Widgets
  • user-avatar
    Login

    Hourly Weather Ostrowiec Świętokrzyski

    Today, 17 June, Monday

    Time Temperature Precipitation Wind Pressure Humidity
    00:00 +18°C° 0 mm 4 mps 749 mmHg 94%
    01:00 +18°C° 0 mm 4 mps 749 mmHg 90%
    02:00 +17°C° 0 mm 3 mps 749 mmHg 91%
    03:00 +16°C° 0 mm 3 mps 749 mmHg 92%
    04:00 +16°C° 0 mm 3 mps 749 mmHg 93%
    05:00 +17°C° 0 mm 3 mps 750 mmHg 88%
    06:00 +17°C° 0 mm 3 mps 750 mmHg 83%
    07:00 +19°C° 0 mm 3 mps 751 mmHg 82%
    08:00 +20°C° 0 mm 3 mps 750 mmHg 75%
    09:00 +21°C° 0 mm 3 mps 750 mmHg 68%
    10:00 +22°C° 0 mm 3 mps 750 mmHg 60%
    11:00 +24°C° 0 mm 3 mps 750 mmHg 58%
    12:00 +24°C° 0 mm 3 mps 750 mmHg 57%
    13:00 +25°C° 0 mm 4 mps 750 mmHg 55%
    14:00 +25°C° 0 mm 3 mps 750 mmHg 56%
    15:00 +25°C° 0 mm 3 mps 750 mmHg 57%
    16:00 +25°C° 0 mm 3 mps 749 mmHg 59%
    17:00 +24°C° 0 mm 3 mps 749 mmHg 66%
    18:00 +22°C° 0 mm 3 mps 749 mmHg 73%
    19:00 +21°C° 0 mm 2 mps 749 mmHg 80%
    20:00 +19°C° 0 mm 2 mps 749 mmHg 84%
    21:00 +18°C° 0 mm 2 mps 750 mmHg 88%
    22:00 +17°C° 0 mm 2 mps 750 mmHg 93%
    23:00 +17°C° 0 mm 2 mps 750 mmHg 94%

    Tomorrow, 18 June, Tuesday

    Time Temperature Precipitation Wind Pressure Humidity
    00:00 +17°C° 0 mm 2 mps 750 mmHg 94%
    01:00 +16°C° 0 mm 2 mps 750 mmHg 95%
    02:00 +16°C° 0 mm 2 mps 750 mmHg 96%
    03:00 +16°C° 0 mm 2 mps 750 mmHg 97%
    04:00 +15°C° 0 mm 2 mps 750 mmHg 97%
    05:00 +17°C° 0 mm 2 mps 750 mmHg 93%
    06:00 +18°C° 0 mm 3 mps 750 mmHg 88%
    07:00 +20°C° 0 mm 3 mps 750 mmHg 84%
    08:00 +21°C° 0 mm 3 mps 750 mmHg 79%
    09:00 +22°C° 0 mm 3 mps 750 mmHg 73%
    10:00 +24°C° 0 mm 3 mps 750 mmHg 67%
    11:00 +25°C° 0 mm 3 mps 750 mmHg 65%
    12:00 +25°C° 0 mm 4 mps 749 mmHg 63%
    13:00 +26°C° 0 mm 4 mps 749 mmHg 60%
    14:00 +26°C° 0 mm 4 mps 749 mmHg 63%
    15:00 +26°C° 0 mm 4 mps 748 mmHg 65%
    16:00 +26°C° 0 mm 5 mps 748 mmHg 67%
    17:00 +25°C° 0 mm 4 mps 748 mmHg 72%
    18:00 +23°C° 0 mm 4 mps 748 mmHg 77%
    19:00 +22°C° 0 mm 3 mps 748 mmHg 82%
    20:00 +21°C° 0 mm 3 mps 748 mmHg 85%
    21:00 +20°C° 0 mm 3 mps 748 mmHg 88%
    22:00 +19°C° 0 mm 3 mps 748 mmHg 92%
    23:00 +18°C° 0.3 mm 3 mps 747 mmHg 92%

    Day after tomorrow, 19 June, Wednesday

    Time Temperature Precipitation Wind Pressure Humidity
    00:00 +18°C° 0.3 mm 3 mps 747 mmHg 93%
    01:00 +18°C° 0.3 mm 3 mps 747 mmHg 93%
    02:00 +18°C° 0.6 mm 3 mps 746 mmHg 94%
    03:00 +18°C° 0.6 mm 3 mps 746 mmHg 95%
    04:00 +18°C° 0.6 mm 3 mps 746 mmHg 96%
    05:00 +19°C° 0.3 mm 4 mps 746 mmHg 94%
    06:00 +20°C° 0.3 mm 4 mps 746 mmHg 92%
    07:00 +21°C° 0.3 mm 4 mps 746 mmHg 90%
    08:00 +22°C° 0 mm 4 mps 746 mmHg 86%
    09:00 +23°C° 0 mm 4 mps 746 mmHg 83%
    10:00 +26°C° 0 mm 3 mps 745 mmHg 79%
    11:00 +27°C° 0.1 mm 3 mps 745 mmHg 72%
    12:00 +28°C° 0.1 mm 3 mps 745 mmHg 65%
    13:00 +30°C° 0.1 mm 2 mps 744 mmHg 58%
    14:00 +29°C° 0.4 mm 2 mps 744 mmHg 61%
    15:00 +29°C° 0.4 mm 3 mps 744 mmHg 63%
    16:00 +29°C° 0.4 mm 3 mps 744 mmHg 66%
    17:00 +27°C° 0.6 mm 2 mps 744 mmHg 70%
    18:00 +25°C° 0.6 mm 1 mps 743 mmHg 75%
    19:00 +23°C° 0.6 mm 1 mps 743 mmHg 80%
    20:00 +22°C° 0.5 mm 1 mps 743 mmHg 82%
    21:00 +22°C° 0.5 mm 1 mps 743 mmHg 83%
    22:00 +21°C° 0.5 mm 1 mps 744 mmHg 85%
    23:00 +21°C° 0 mm 1 mps 743 mmHg 86%

    20 June, Thursday

    Time Temperature Precipitation Wind Pressure Humidity
    00:00 +20°C° 0 mm 1 mps 743 mmHg 87%
    01:00 +20°C° 0 mm 1 mps 743 mmHg 88%
    02:00 +20°C° 0 mm 1 mps 743 mmHg 88%
    03:00 +20°C° 0 mm 1 mps 743 mmHg 88%
    04:00 +20°C° 0 mm 1 mps 743 mmHg 88%
    05:00 +22°C° 0 mm 1 mps 744 mmHg 86%
    06:00 +23°C° 0 mm 1 mps 744 mmHg 83%
    07:00 +24°C° 0 mm 2 mps 744 mmHg 80%
    08:00 +26°C° 0.3 mm 1 mps 744 mmHg 74%
    09:00 +27°C° 0.3 mm 1 mps 744 mmHg 67%
    10:00 +28°C° 0.3 mm 1 mps 744 mmHg 61%
    11:00 +29°C° 0.2 mm 1 mps 744 mmHg 59%
    12:00 +30°C° 0.2 mm 1 mps 744 mmHg 56%
    13:00 +30°C° 0.2 mm 1 mps 743 mmHg 54%
    14:00 +29°C° 1.3 mm 1 mps 743 mmHg 59%
    15:00 +29°C° 1.3 mm 1 mps 743 mmHg 64%
    16:00 +28°C° 1.3 mm 1 mps 743 mmHg 69%
    17:00 +27°C° 0.6 mm 1 mps 743 mmHg 74%
    18:00 +26°C° 0.6 mm 1 mps 743 mmHg 78%
    19:00 +25°C° 0.6 mm 1 mps 743 mmHg 82%
    20:00 +24°C° 0.1 mm 1 mps 743 mmHg 84%
    21:00 +23°C° 0.1 mm 1 mps 743 mmHg 86%
    22:00 +22°C° 0.1 mm 1 mps 744 mmHg 88%
    23:00 +22°C° 0 mm 1 mps 743 mmHg 88%

    21 June, Friday

    Time Temperature Precipitation Wind Pressure Humidity
    00:00 +21°C° 0 mm 1 mps 743 mmHg 87%
    01:00 +19°C° 0 mm 0 mps 743 mmHg 87%
    02:00 +19°C° 0 mm 0 mps 743 mmHg 87%
    03:00 +19°C° 0 mm 0 mps 743 mmHg 88%
    04:00 +19°C° 0 mm 0 mps 744 mmHg 88%
    05:00 +20°C° 0 mm 0 mps 744 mmHg 85%
    06:00 +24°C° 0 mm 1 mps 744 mmHg 81%
    07:00 +25°C° 0 mm 1 mps 744 mmHg 77%
    08:00 +27°C° 0.3 mm 1 mps 744 mmHg 73%
    09:00 +28°C° 0.3 mm 2 mps 744 mmHg 69%
    10:00 +29°C° 0.3 mm 2 mps 744 mmHg 65%
    11:00 +29°C° 0.7 mm 2 mps 744 mmHg 65%
    12:00 +29°C° 0.7 mm 2 mps 744 mmHg 65%
    13:00 +30°C° 0.7 mm 3 mps 743 mmHg 65%
    14:00 +30°C° 1.2 mm 2 mps 743 mmHg 63%
    15:00 +30°C° 1.2 mm 2 mps 743 mmHg 61%
    16:00 +30°C° 1.2 mm 2 mps 743 mmHg 60%
    17:00 +29°C° 0.2 mm 2 mps 743 mmHg 66%
    18:00 +27°C° 0.2 mm 2 mps 744 mmHg 73%
    19:00 +26°C° 0.2 mm 2 mps 744 mmHg 79%
    20:00 +25°C° 0.3 mm 2 mps 744 mmHg 82%
    21:00 +24°C° 0.3 mm 2 mps 744 mmHg 86%
    22:00 +21°C° 0.3 mm 3 mps 745 mmHg 89%
    23:00 +21°C° 0.3 mm 3 mps 745 mmHg 91%

    22 June, Saturday

    Time Temperature Precipitation Wind Pressure Humidity
    00:00 +21°C° 0.3 mm 3 mps 745 mmHg 93%
    01:00 +20°C° 0.3 mm 3 mps 745 mmHg 95%
    02:00 +20°C° 0.3 mm 3 mps 745 mmHg 95%
    03:00 +20°C° 0.3 mm 3 mps 745 mmHg 96%
    04:00 +19°C° 0.3 mm 4 mps 745 mmHg 97%
    05:00 +19°C° 0.7 mm 4 mps 746 mmHg 97%
    06:00 +19°C° 0.7 mm 4 mps 746 mmHg 96%
    07:00 +19°C° 0.7 mm 4 mps 746 mmHg 96%
    08:00 +20°C° 0.5 mm 4 mps 746 mmHg 93%
    09:00 +20°C° 0.5 mm 4 mps 746 mmHg 91%
    10:00 +21°C° 0.5 mm 4 mps 746 mmHg 88%
    11:00 +22°C° 0 mm 4 mps 746 mmHg 85%
    12:00 +22°C° 0 mm 4 mps 746 mmHg 82%
    13:00 +23°C° 0 mm 4 mps 746 mmHg 79%
    14:00 +23°C° 0 mm 4 mps 746 mmHg 80%
    15:00 +23°C° 0 mm 4 mps 746 mmHg 80%
    16:00 +23°C° 0 mm 4 mps 746 mmHg 80%
    17:00 +23°C° 0 mm 4 mps 746 mmHg 83%
    18:00 +22°C° 0 mm 4 mps 746 mmHg 86%
    19:00 +22°C° 0 mm 3 mps 745 mmHg 89%
    20:00 +21°C° 0.4 mm 3 mps 745 mmHg 91%
    21:00 +20°C° 0.4 mm 3 mps 746 mmHg 94%
    22:00 +19°C° 0.4 mm 3 mps 746 mmHg 97%
    23:00 +19°C° 0.2 mm 3 mps 745 mmHg 97%
    Show more